カタログに戻る

COSMOS 1930

運用中軍事LEO
NORAD 18943·PAYLOAD·🇷🇺 Russia

打ち上げ Mar 11, 1988 から Plesetsk Cosmodrome

Loading…

次のパス (今後24時間)

TLE

最新Source: Space-Track

元期: Sep 14, 2026, 13:49 UTC

1 18943U 88016G   26257.57602622 -.00000002  00000-0  85419-4 0  9994
2 18943  74.0063 311.7196 0030102 322.9954 208.1793 12.56642226766662

AllMySatでCOSMOS 1930をリアルタイム追跡

Download on the App Store